Location: Bittkow
(50.3000°N, 19.0000°E)
Time: 07:04:23
(UTC+00:00)

Cosmos 44 - Pass Details

Date: 19 September 2020
Orbit: 581 x 781 km, 65.1° (Epoch: 19 October)

Event Time Altitude Azimuth Distance (km) Brightness Sun altitude
Exits shadow 03:24:51 13° 234° (SW) 1,806 4.9 -10.5°
Maximum altitude 03:28:50 62° 314° (NW) 718 3.2 -9.9°
Drops below altitude 10° 03:33:31 10° 36° (NE) 2,091 6.6 -9.1°
Sets 03:35:57 0° 40° (NE) 3,044 7.5 -8.8°
